Regional Weather Roundup
Issued by NWS Grand Forks, ND

Home | Current Version | Previous Version | Text Only | Print | Product List | Glossary Off
Versions: 1 2 3 4 5 6 7 8 9 10 11 12 13 14 15 16 17 18 19 20 21 22 23 24 25 26 27 28 29 30 31 32 33 34 35 36 37 38 39 40 41 42 43 44 45 46 47 48 49 50

000
ASUS43 KFGF 252310
RWRFGF
PRAIRIE TO PINES  WEATHER ROUNDUP
NATIONAL WEATHER SERVICE EASTERN NORTH DAKOTA/GRAND FORKS ND
600 PM CDT TUE JUL 25 2017

 **SATELLITE DATA USED TO AUGMENT SKY COVER AT AUTOMATED STATIONS**
 *****  WEATHER ACROSS EASTERN NORTH DAKOTA  *****

CITY           SKY/WX    TMP DP  RH WIND       PRES   REMARKS
GRAND FORKS    FAIR      85  58  39 W14       29.88R
GRAND FRKS AFB FAIR      82  56  41 NW14      29.90R
DEVILS LAKE    FAIR      80  56  43 W18       29.95R
FARGO          FAIR      79  70  74 W8        29.90F
WAHPETON ARPT  FAIR      79  68  69 NW9       29.90F
$$

 ***** WEATHER ACROSS CENTRAL AND WESTERN NORTH DAKOTA  *****

CITY           SKY/WX    TMP DP  RH WIND       PRES   REMARKS
BISMARCK       FAIR      88  48  25 NW8       29.98S
MINOT          FAIR      86  48  26 W20       29.96S
JAMESTOWN      FAIR      84  54  35 N9        29.95F
MINOT AFB      FAIR      84  51  31 NW18G24   29.95R
GARRISON         N/A     84  47  27 NW16G25   29.98S
WILLISTON      FAIR      88  43  20 NW13G23   30.00S
DICKINSON      FAIR      85  45  24 N6        30.03S
HETTINGER      FAIR      83  45  26 SE6       30.05F
$$

 *****  OTHER AIRPORT OBSERVATIONS IN OUR AREA  *****

CITY           SKY/WX    TMP DP  RH WIND       PRES   REMARKS
WALHALLA       NOT AVBL
GRAFTON AIRPOR FAIR      81  61  50 W14       29.91R
VALLEY CITY AR FAIR      84  59  42 NW12      29.96R
CANDO          NOT AVBL
CAVALIER APRT  FAIR      77  61  57 W13       29.89S
GWINNER        CLEAR     79  72  78 NW5       29.92F
ROLLA            N/A     73  57  56 NW15G22   29.97R
 ***** THE ABOVE OBSERVATIONS ARE NON NWS ARE NOT QUALITY
       CONTROLLED AND MAY MIS-REPORT RAIN FOR SNOW...
$$

  *****  WEATHER ACROSS NORTHERN MINNESOTA  *****

CITY           SKY/WX    TMP DP  RH WIND       PRES   REMARKS
FLAG ISLAND    FAIR      79  52  38 W17G26    29.81R
WARROAD        FAIR      81  61  50 W10G21    29.85R
ROSEAU         FAIR      79  63  57 W12G20    29.86R
HALLOCK        FAIR      79  61  53 NW13G18   29.88R
THF RVR FALLS  FAIR      82  66  58 W13       29.89R
BAUDETTE       FAIR      80  68  66 SW10      29.83F
WASKISH        CLOUDY    75  68  78 SW8       29.88S
CROOKSTON      FAIR      82  63  51 W13       29.89R
STEPHEN NDAWN    N/A     82  59  44 NW12        N/A
GREENBUSH NDAW   N/A     79  59  50 NW13        N/A
$$
  *****  WEATHER ACROSS CENTRAL AND WEST MINNESOTA  *****

CITY           SKY/WX    TMP DP  RH WIND       PRES   REMARKS
FOSSTON        FAIR      79  68  69 SW13      29.91S
BEMIDJI        CLOUDY    74  67  80 SW10      29.91R
PARK RAPIDS    CLOUDY    77  69  76 W5        29.92R
ELBOW LAKE     FAIR      79  72  78 NW8       29.92R
WADENA         CLOUDY    79  70  73 W5        29.92R
DETROIT LAKES  PTSUNNY   75  68  78 NW7       29.93F
MOORHEAD       FAIR      79  70  73 W6        29.91F
FERGUS FALLS   FAIR      79  70  73 NW8       29.90S
MORRIS MN      FAIR      84  75  74 S10       29.85F HX  92
STAPLES        PTSUNNY   79  68  69 W6        29.90S
$$
  *****  WEATHER ELSEWHERE ACROSS MINNESOTA  *****

CITY           SKY/WX    TMP DP  RH WIND       PRES   REMARKS
DULUTH         CLOUDY    69  65  86 SE6       29.94F
INTRNTL FALLS  CLOUDY    72  65  78 SW14G22   29.85F
ELY            CLOUDY    72  63  73 S12G18    29.91F
CLOQUET        CLOUDY    72  64  78 SE6       29.93F
WHEATON        FAIR      81  70  69 NW8       29.92R
BRAINERD       PTSUNNY   79  70  74 S7        29.89F
HIBBING        CLOUDY    69  67  93 S6        29.91F
ALEXANDRIA     FAIR      80  73  79 S8        29.90S
SAINT CLOUD    FAIR      80  73  79 SE8       29.89F
MINNEAPOLIS    CLOUDY    84  70  62 VRB7      29.94S
$$

  *****  WEATHER ACROSS SOUTH DAKOTA  *****

CITY           SKY/WX    TMP DP  RH WIND       PRES   REMARKS
SIOUX FALLS    CLOUDY    90  62  39 S16G23    29.87R HX  90
BROOKINGS      LGT RAIN  72  70  94 E9        29.91F
WATERTOWN      PTSUNNY   83  73  72 SE13G20   29.89R
HURON          PTSUNNY   83  68  60 SE17G26   29.85R
SISSETON         N/A     82  73  74 N10       29.90R
ABERDEEN       FAIR      82  71  69 N20       29.91S
MITCHELL       TSTM      73  69  87 N14G23    29.87R
PIERRE         FAIR      90  67  46 N22G28    29.85F HX  93
MOBRIDGE       FAIR      84  62  47 NE15      29.93F
RAPID CITY     FAIR      86  56  35 N18       30.01F
$$

  *****  SOME WEATHER IN NEARBY STATES *****

CITY           SKY/WX    TMP DP  RH WIND       PRES   REMARKS
GLASGOW MT     FAIR      84  41  21 W12       30.04S
GREAT FALLS MT FAIR      83  37  19 NE9       30.04F
CHEYENNE WY    CLOUDY    75  52  44 NW20G36   30.17R
SCOTTSBLUFF NE FAIR      96  54  24 N13       29.95S HX  94
OMAHA NE       FAIR      95  74  50 S21G26    29.92F HX 105
DES MOINES IA  FAIR      94  71  47 S15       29.96F HX 101
DAVENPORT IA   FAIR      80  68  66 S7        30.11F
CHICAGO IL     CLOUDY    78  56  46 SE16      30.12F
EAU CLAIRE WI  FAIR      75  65  70 S13       29.98F
LA CROSSE WI   FAIR      82  67  60 S16       30.01F
$$

  *****  SOME NATIONAL WEATHER *****

CITY           SKY/WX    TMP DP  RH WIND       PRES   REMARKS
LA GUARDIA NY  CLOUDY    68  60  75 NE9       30.15S
RALEIGH NC     PTSUNNY   86  64  47 NE5       30.06S
ATLANTA GA     PTSUNNY   83  69  62 S3        30.07F
NEW ORLEANS LA PTSUNNY   89  73  59 N8        30.09R HX  97
OKLAHOMA CITY  FAIR      96  61  31 S13       30.00F HX  96
ALBUQUERQUE NM PTSUNNY   87  56  34 NW9       30.17S
SALT LAKE CITY PTSUNNY   84  56  38 CALM      30.07F
LOS ANGELES CA FAIR      74  64  71 W16G23    29.96F
BOISE ID       FAIR      93  48  21 NW13      29.94F
SEATTLE WA     FAIR      84  51  31 NW12      30.01F
$$

*** WEATHER ACROSS MANITOBA...SASKATCHEWAN AND ONTARIO ***
                ***ONTARIO***

CITY           SKY/WX    TMP DP  RH WIND       PRES   REMARKS
GERALDTON      MOSUNNY   70  54  56 S17G31    29.93F
THUNDER BAY    PTSUNNY   72  59  64 S6        29.93F
SIOUX LOOKOUT  PTSUNNY   77  66  69 SW20G28   29.76F
TORONTO        MOSUNNY   70  55  60 S8        30.22S
BIG TROUT LK   TSTM      63  59  88 NW24G33   29.62R
PICKLE LAKE    TSTM      72  66  83 W8        29.72R
DRYDEN         PTSUNNY   75  66  73 SW18G24   29.78F
KENORA         NOT AVBL
$$
                *** MANITOBA***

CITY           SKY/WX    TMP DP  RH WIND       PRES   REMARKS
BRANDON        PTSUNNY   73  59  60 NW20G28   29.91R
DAUPHIN        MOSUNNY   75  59  57 NW13G24   29.83R
ISLAND LAKE    NOT AVBL
PILOT MOUND      N/A     72  55  56 NW13G22     N/A
THE PAS        MOSUNNY   72  57  60 NW14G23   29.78R
THOMPSON       PTSUNNY   68  57  68 N17G26    29.66R
WINNIPEG       MOSUNNY   75  59  57 W17G25    29.84S
LYNN LAKE      PTSUNNY   72  52  49 NW16G23   29.76R
CHURCHILL      FOG       52  50  93 NE9       29.64R VSB 1/2
GILLAM         CLOUDY    63  61  94 N12       29.58R
$$
                ***SASKATCHEWAN***

CITY           SKY/WX    TMP DP  RH WIND       PRES   REMARKS
ESTEVAN        MOSUNNY   79  54  41 NW17      29.99S
KINDERSLEY     MOSUNNY   77  46  33 NW7       30.04S
LLOYDMINSTER   MOSUNNY   70  52  52 W6        30.05S
PRINCE ALBERT  MOSUNNY   75  55  50 NW13      29.96R
REGINA         MOSUNNY   79  52  38 NW18G30   29.99R
YORKTON        PTSUNNY   66  63  88 NW14G20   29.93R
N. BATTLEFORD  MOSUNNY   73  54  49 NW9       30.04S
LA RONGE       PTSUNNY   75  54  46 NW10G20   29.91R
SASKATOON      PTSUNNY   77  54  44 NW15      30.01R
SWIFT CURRENT  SUNNY     77  41  27 NW13G21   30.06S
$$
NOTE: THESE ARE AUTOMATED STATIONS WITH LIMITED QUALITY CONTROL
      "FAIR" INDICATES FEW OR NO CLOUDS BELOW 12,000 FEET WITH NO
      SIGNIFICANT WEATHER AND/OR OBSTRUCTIONS TO VISIBILITY.
      SKY/WX - SKY CONDITION AND SIGNIFICANT WEATHER.
      TMP - AIR TEMPERATURE.    DP   - DEWPOINT TEMPERATURE.
      RH  - RELATIVE HUMIDITY.  PRES - PRESSURE.
      HX  - HEAT INDEX.         WCI  - WIND CHILL INDEX.
$




USA.gov is the U.S. government's official web portal to all federal, state and local government web resources and services.